Helicity
26 42 55 52 42 40 39 42 45 44 50 50 50 58 58 59 68 72 72 73 73 75 76 72 70 67 61 54 40 22 12 13
46 49 46 37 43 37 42 39 31 35 38 32 33 38 40 40 50 75 66 63 60 59 57 55 53 52 48 33 12 -11 -10 46
44 48 36 31 36 42 26 29 20 25 32 23 10 19 36 37 102 79 64 57 50 47 46 43 36 33 36 33 14 3 64 32
45 36 37 20 16 23 33 45 38 43 48 39 35 57 79 66 83 68 49 44 49 45 48 34 18 21 52 17 26 92 48 73
48 35 20 -5 21 5 19 23 36 52 41 50 80 47 63 43 67 68 40 35 21 39 47 39 110 83 95 95 76 62 57 80
33 28 20 3 -11 -5 2 7 33 30 79 51 42 36 67 55 54 55 43 56 86 47 69 79 54 59 64 71 69 71 70 89
34 31 20 19 10 5 3 5 28 44 42 69 50 45 60 45 50 36 44 43 44 52 60 62 74 61 58 60 56 60 65 92
30 34 30 32 13 26 23 39 49 52 63 85 63 47 53 36 34 36 29 31 39 54 57 62 67 75 80 73 69 69 65 80
36 47 56 51 42 43 47 75 65 68 73 77 70 46 41 36 37 45 34 37 39 25 39 44 49 52 54 67 73 67 73 107
37 53 61 62 70 77 82 87 71 64 69 72 82 59 57 56 50 49 44 49 29 29 40 55 64 67 76 74 88 99 84 99
30 43 60 68 101 84 115 92 52 64 90 72 101 86 82 83 72 55 63 59 58 64 76 101 102 98 83 97 111 112 125 121
73 70 106 120 151 116 94 81 65 80 83 112 175 120 146 108 81 64 71 75 79 86 103 99 113 114 93 113 137 170 190 174
141 140 230 140 140 169 152 138 160 132 143 236 151 151 143 112 100 94 88 93 118 124 114 106 125 121 130 133 144 120 166 193
119 147 164 166 199 210 153 134 144 149 112 238 160 178 100 82 114 88 89 128 139 113 115 129 128 126 126 130 138 152 187 231
163 181 180 188 179 169 151 110 130 157 192 111 92 147 118 167 173 125 134 129 114 111 114 117 138 137 139 152 165 170 158 121
170 187 181 154 141 149 118 111 133 154 106 168 212 130 146 148 118 123 115 102 73 70 84 161 184 175 175 182 188 190 186 171
167 161 139 125 110 105 106 109 110 81 119 178 108 139 151 119 111 113 108 68 73 113 126 124 179 206 203 265 307 322 315 288
106 85 84 90 86 84 78 67 77 80 99 127 158 146 125 117 121 109 99 61 92 148 265 294 245 216 247 287 305 260 321 316
92 93 89 93 77 63 84 80 106 128 162 177 144 119 105 88 88 63 78 176 215 243 216 223 208 195 217 241 255 254 233 222
58 57 67 102 132 151 154 168 189 177 169 153 126 99 91 76 91 199 270 366 334 254 197 162 112 125 120 122 128 130 139 142
Wind_Speed
36 34 32 33 34 36 36 36 36 37 37 36 36 36 36 36 37 38 38 38 38 38 38 39 39 38 38 39 40 43 42 38
32 30 28 29 32 34 35 34 35 35 35 35 34 32 34 35 33 36 36 37 37 38 38 38 36 36 37 40 41 41 30 45
27 28 28 30 31 31 30 31 31 32 32 33 28 26 32 29 39 37 36 36 36 37 37 36 36 33 31 36 40 36 45 43
25 26 28 29 30 30 30 29 28 32 34 34 32 40 41 43 34 33 31 31 34 34 36 37 34 35 29 32 34 47 48 46
23 25 27 30 34 33 28 28 29 29 32 37 40 41 38 38 37 29 28 27 37 29 36 38 48 49 50 50 49 47 45 46
21 23 25 29 33 32 34 29 30 30 35 37 38 39 44 44 45 49 45 44 48 44 46 45 47 48 48 50 50 50 49 48
19 19 22 26 29 33 33 32 31 37 36 39 40 43 45 46 48 48 49 48 48 50 51 51 51 51 48 50 51 50 50 50
16 17 19 22 27 31 33 32 35 34 38 40 40 41 45 47 49 51 52 50 51 55 56 56 56 55 54 50 51 52 50 46
13 14 16 19 24 29 34 36 38 38 39 40 42 44 46 48 50 53 53 54 54 52 52 51 50 51 51 48 48 47 49 48
14 16 17 17 23 30 36 38 39 40 40 41 45 46 48 50 52 53 54 58 57 58 57 58 58 58 56 56 55 49 49 45
19 20 20 22 26 32 36 39 38 39 41 43 46 50 50 52 53 55 56 57 57 57 58 58 60 58 59 56 52 52 51 49
30 28 25 28 33 34 37 38 39 40 44 47 51 54 54 55 56 57 57 61 62 63 66 66 67 68 70 68 68 61 56 55
33 30 34 36 36 41 43 45 48 47 47 52 53 52 58 61 60 64 65 69 73 72 71 72 72 69 73 72 70 66 65 62
35 34 38 40 40 43 43 46 47 49 43 54 57 59 65 70 73 74 76 78 77 75 74 77 75 70 76 79 88 81 68 64
39 40 42 44 46 45 48 48 47 54 56 67 67 70 73 73 77 78 77 76 77 76 74 75 80 75 71 77 85 89 83 71
42 45 47 48 51 52 54 56 62 66 69 73 75 72 74 77 77 75 73 74 76 75 73 76 78 84 80 78 80 84 98 101
49 51 51 54 56 57 61 64 67 68 70 75 78 73 76 76 76 77 78 78 79 81 82 80 78 82 85 85 84 82 81 87
53 53 56 56 58 59 62 67 70 74 75 77 74 77 78 80 81 80 80 78 76 78 76 75 77 79 78 77 80 82 84 80
56 59 61 60 60 63 66 68 70 70 75 76 82 85 86 85 83 80 78 77 76 75 75 71 75 77 77 78 74 74 73 74
56 60 65 67 67 68 68 69 70 72 75 78 81 84 87 84 80 77 75 72 70 69 67 72 71 69 69 67 66 63 62 63
Wind_Direction
103 87 73 58 50 46 35 29 28 25 23 26 27 24 22 20 16 12 11 7 5 3 359 356 352 350 349 345 340 335 332 338
92 81 63 64 52 37 29 27 25 23 24 24 26 29 24 20 24 13 8 5 0 354 352 351 351 348 344 340 337 335 344 325
60 53 44 28 28 37 44 40 42 42 38 34 43 37 23 30 5 7 5 2 357 354 351 349 345 343 345 340 334 334 325 325
71 56 36 37 34 30 33 33 34 24 19 18 19 3 359 353 3 5 3 -0 352 349 345 342 341 340 341 340 337 325 321 319
63 49 39 34 16 20 35 34 28 27 16 7 3 1 3 2 2 7 7 1 352 352 342 338 330 327 324 322 322 322 322 320
68 54 48 31 21 22 17 27 21 18 10 6 4 1 356 355 352 346 347 347 341 340 336 334 329 325 323 320 318 316 315 315
69 57 44 37 31 17 16 16 17 6 5 0 358 354 352 351 347 346 345 344 340 336 333 330 327 324 322 319 317 315 313 311
68 55 49 34 20 13 8 9 4 3 358 357 356 354 350 347 345 343 341 342 338 335 331 328 325 322 319 317 316 314 312 311
55 38 27 18 11 4 358 357 357 356 354 353 351 349 346 344 342 340 339 339 336 335 332 330 327 325 322 320 317 314 311 308
19 10 8 5 359 354 348 349 349 349 349 347 345 344 344 341 339 337 336 334 332 330 328 325 323 320 318 316 314 312 310 307
351 348 346 346 347 345 344 343 344 346 346 344 344 341 340 337 334 333 333 332 330 327 325 322 320 317 315 313 310 308 306 303
341 339 342 341 337 339 338 340 341 343 341 340 341 338 339 336 333 331 331 328 325 321 318 317 314 312 310 307 307 304 301 299
347 346 343 338 337 335 334 335 336 336 337 339 338 337 336 334 330 327 326 322 321 318 315 313 311 309 306 304 301 299 294 292
353 350 346 342 341 337 336 333 334 334 338 338 335 332 329 326 325 323 321 319 318 316 314 311 309 309 304 303 300 299 294 287
353 348 345 345 340 339 336 334 334 332 328 327 326 327 324 324 322 322 321 320 318 317 315 311 309 307 305 301 299 296 298 297
348 344 341 341 340 336 334 330 327 325 323 325 326 326 325 325 325 325 323 322 319 317 316 313 311 307 306 302 298 295 293 291
341 339 338 337 335 334 331 328 327 327 327 326 326 328 328 328 327 325 323 321 318 316 314 312 310 307 306 305 301 297 296 295
340 339 338 337 336 335 333 330 329 327 327 328 330 329 329 328 327 326 324 321 320 319 319 318 315 312 310 309 305 300 295 294
339 338 337 338 337 334 333 331 331 331 330 330 329 328 328 328 327 326 325 324 322 320 318 316 317 313 311 308 306 302 299 296
340 339 337 337 335 334 334 333 332 332 331 330 329 328 328 329 329 330 330 330 329 328 325 321 319 316 314 312 310 308 306 303